Regional Weather Roundup
Issued by NWS

Home | Current Version | Previous Version | Graphics & Text | Print | Product List | Glossary On
Versions: 1 2 3 4 5 6 7 8 9 10 11 12 13 14 15 16 17 18 19 20 21 22 23 24 25 26 27 28 29 30 31 32 33 34 35 36 37 38 39 40 41 42 43 44 45 46 47 48 49 50
000
ASUS43 KFSD 240402
RWRSD

WEATHER ROUNDUP FOR SOUTH DAKOTA
NATIONAL WEATHER SERVICE SIOUX FALLS SD
1100 PM CDT THU MAR 23 2017

NOTE: "FAIR" INDICATES FEW OR NO CLOUDS BELOW 12,000 FEET WITH NO
SIGNIFICANT WEATHER AND/OR OBSTRUCTIONS TO VISIBILITY.


SDZ001>005-009-010-012>017-240500-
NORTHWEST AND NORTH CENTRAL SOUTH DAKOTA

CITY           SKY/WX    TMP DP  RH WIND       PRES   REMARKS
BUFFALO          N/A     41  40  96 W6        29.87S
FAITH            N/A     44  38  79 N14       29.85F
MOBRIDGE       CLOUDY    42  36  79 N13       29.78F
$$

SDZ012>016-024>037-041>051-057-063-072>074-240500-
SOUTHWEST AND SOUTH CENTRAL SOUTH DAKOTA

CITY           SKY/WX    TMP DP  RH WIND       PRES   REMARKS
RAPID CTY ARPT MOCLDY    41  38  89 NW24G33   29.84F
PIERRE         CLOUDY    43  37  79 N10       29.81R
CUSTER         CLOUDY    35  31  85 N12G24    29.83F WCI  27
ELLSWORTH AFB  MOCLDY    42  42 100 NW18G29   29.83F
PHILIP         CLOUDY    44  40  85 NE10      29.84R
PINE RIDGE     CLOUDY    45  42  89 VRB5      29.84R
SPEARFISH      CLOUDY    39  39 100 SW5       29.94F
WINNER         FOG       48  47  96 NE9       29.77R VSB 1/4
$$

SDZ004>011-016>023-039-040-240500-
NORTHEAST SOUTH DAKOTA

CITY           SKY/WX    TMP DP  RH WIND       PRES   REMARKS
ABERDEEN       CLOUDY    36  34  92 N3        29.85R
WATERTOWN      CLOUDY    36  35  96 E5        29.78R
BROOKINGS      CLOUDY    38  38 100 N7        29.78R FOG
SISSETON         N/A     35  35 100 E5        29.82S
$$

SDZ017-020-022-023-036>040-048>070-240500-
SOUTHEAST SOUTH DAKOTA

CITY           SKY/WX    TMP DP  RH WIND       PRES   REMARKS
SIOUX FALLS    CLOUDY    45  40  82 NE8       29.73S
HURON          CLOUDY    41  41 100 N7        29.80R
CHAMBERLAIN    CLOUDY    46  46  99 N12       29.77S
MITCHELL       CLOUDY    45  45 100 N9        29.78R FOG
YANKTON        CLOUDY    50  45  81 N10G23    29.72R
$$

ABBREVIATIONS USED IN REMARKS
   TC - TEMPERATURE IN CELSIUS
  WCI - WIND CHILL INDEX
   HX - HEAT INDEX
  VSB - VISIBILITY




USA.gov is the U.S. government's official web portal to all federal, state and local government web resources and services.